User: anonymous   Login
Location: Mason Neck State Park
(38.6428°N, 77.1981°W)
Time: 16:26:39
(UTC-05:00)
Language:

Cosmos 1400 Rocket - Orbit

View from above orbital plane
View from above orbital plane
View from above satellite
View from above satellite

Ground track
Ground track

The orbit data is extracted from the following two-line orbital elements,

1 13403U 82079B   16043.89732063 +.00000896 +00000-0 +59000-4 0  9990
2 13403 081.1693 110.7010 0035875 093.7329 266.7998 15.05993363822690
Epoch (UTC): 12 February 2016 21:32:08
Eccentricity: 0.0035875
inclination: 81.1693°
perigee height: 523 km
apogee height: 573 km
right ascension of ascending node: 110.7010°
argument of perigee: 93.7329°
revolutions per day: 15.05993363
mean anomaly at epoch: 266.7998°
orbit number at epoch: 82269

The dashed part of the orbit path shows where the satellite is in the earth's shadow,  

DLR